Back to catalog

KUIPER-00526

AliveCommunicationsLEO
NORAD 69764·PAYLOAD·🇺🇸 United States

Launched Jul 2, 2026 from Cape Canaveral Space Force Station

Loading…

Next Passes (next 24 hours)

TLE

FreshSource: CelesTrak SupGP

Epoch: Sep 14, 2026, 17:08 UTC

1 69764C 26151B   26257.71413194  .00000891  00000+0  11667-3 0  2577
2 69764  51.8974 259.8534 0000655  63.4918 217.5856 14.79919779    19

Track KUIPER-00526 in real time with AllMySat

Download on the App Store